Dewpoint
49 49 49 49 48 48 48 48 48 48 48 49 49 48 48 48 48 48 48 48 48 48 48 48 48 48 48 49 49 49 48 48 48 47 47 47 47 46 46 46 45 44 42 40 38 37 34 30 22 16 17 18 18 19 20 28 31 33 34 37 40 41 44 49 52 53 53 54 54 53 53 53 52 52 53 53 53 53 53 53 53 53 53 53 53 53 53 53 54 54 54 54 54 54 54 54 54 54 54 54 53 53 53
48 48 48 48 48 48 48 48 48 48 48 48 48 48 48 48 48 47 48 47 47 47 47 47 47 48 48 48 48 48 48 47 47 47 47 47 46 46 45 45 45 44 42 39 37 36 34 28 21 16 18 18 18 19 20 25 28 31 33 37 39 42 46 50 51 52 53 53 53 53 53 52 52 52 52 52 52 52 52 52 52 53 53 53 53 53 53 53 53 53 53 53 54 54 54 54 54 53 53 53 53 53 53
48 47 47 48 48 48 47 47 48 48 48 48 48 48 47 47 47 47 47 47 47 46 46 47 47 47 48 48 48 47 47 47 47 47 46 46 46 45 45 45 44 43 41 39 37 35 34 30 23 17 17 17 18 19 22 24 26 28 32 36 39 42 46 50 51 51 52 52 53 52 52 52 52 52 52 52 52 52 52 52 52 52 52 52 52 52 53 53 53 53 53 53 53 53 53 53 53 53 53 53 53 53 53
47 47 47 47 47 47 47 47 47 47 47 47 47 47 47 47 47 47 47 46 46 46 46 46 47 47 47 47 47 47 47 47 47 46 46 45 45 44 44 44 43 42 41 38 36 33 31 30 26 20 17 17 17 19 23 26 27 28 31 35 39 43 48 50 51 51 52 52 52 52 52 52 52 52 52 52 51 51 51 52 52 52 52 52 52 52 52 52 52 52 52 53 53 53 53 53 53 53 53 53 53 53 53
47 47 47 46 47 47 46 46 47 47 47 47 47 47 47 47 47 46 46 46 46 46 46 46 46 46 46 46 46 46 46 46 46 46 45 45 44 44 44 43 43 42 41 39 36 32 26 28 25 20 17 18 18 19 22 27 28 28 30 34 38 44 49 50 50 51 51 51 51 51 51 51 51 51 51 51 51 51 51 51 51 51 51 51 51 51 51 52 52 52 52 52 52 52 52 52 52 53 53 53 53 53 53
47 46 46 46 46 46 46 46 46 46 46 46 46 46 46 46 46 46 46 45 45 45 45 45 46 46 46 46 46 46 46 46 46 45 44 44 44 44 43 42 42 41 40 39 36 32 28 25 21 17 17 17 18 19 20 25 26 26 28 33 39 45 49 49 50 50 50 51 51 51 51 51 51 51 51 50 50 50 51 51 51 50 50 50 50 51 51 51 51 51 51 51 52 52 52 52 52 52 52 52 52 52 52
47 46 46 46 46 46 46 46 46 46 46 46 46 46 46 46 46 46 45 45 44 44 44 44 44 45 45 45 45 45 46 45 45 44 44 43 43 43 42 41 41 41 40 39 37 33 28 23 20 19 18 18 18 18 18 23 25 26 27 33 41 46 48 49 49 50 50 50 50 50 50 50 50 50 50 50 50 50 50 50 50 50 50 50 50 50 50 50 50 50 51 51 51 51 51 51 51 52 52 52 52 52 52
46 46 46 46 46 46 46 46 46 46 46 46 46 46 46 46 46 45 45 44 44 44 43 43 43 43 43 44 44 44 45 44 44 43 43 43 42 42 41 41 40 40 39 38 36 34 32 27 22 19 18 19 20 20 19 19 22 24 28 34 41 46 47 48 49 50 50 50 50 50 50 50 50 50 50 50 50 50 50 50 50 50 50 50 50 50 50 50 50 50 50 50 50 50 50 51 51 51 51 51 51 51 51
46 46 46 46 46 46 46 46 46 46 46 46 46 46 46 45 45 45 44 44 43 43 42 42 42 42 42 43 43 43 43 43 43 43 42 42 41 41 41 40 39 39 38 37 36 34 32 28 23 20 19 19 23 25 22 19 20 23 26 35 41 44 46 47 48 49 49 49 50 50 50 50 50 50 50 50 50 50 49 49 49 49 49 49 49 49 49 50 50 50 50 50 50 50 50 50 50 50 50 51 51 51 51
46 46 46 46 45 45 45 45 45 45 45 45 45 45 45 45 45 44 44 43 42 42 41 41 41 41 41 41 42 42 42 42 42 42 42 41 41 40 40 39 38 37 37 36 35 33 32 27 23 21 20 19 23 26 25 22 23 26 27 37 42 44 46 47 48 48 49 49 49 49 49 49 49 49 49 49 49 49 49 49 49 49 49 49 49 49 49 49 49 49 49 49 49 49 49 50 50 50 50 50 50 50 50
46 46 46 45 45 45 45 45 45 45 45 45 45 45 44 44 44 44 43 42 41 41 40 40 40 40 40 40 41 41 41 41 41 41 41 41 40 39 39 38 37 37 36 34 33 32 31 26 23 22 22 21 24 27 22 23 24 26 28 37 41 44 46 46 47 48 48 48 48 48 48 48 49 49 49 49 49 49 49 48 48 48 48 48 48 48 48 48 48 48 48 49 49 49 49 49 50 50 50 50 50 50 50
46 46 45 45 45 45 45 45 45 45 44 45 44 44 44 44 43 43 42 42 41 40 39 39 38 38 38 38 39 39 40 40 40 40 40 39 39 38 38 37 36 35 34 32 31 31 29 23 21 21 22 21 22 23 22 23 23 24 27 37 42 44 45 46 47 47 48 48 48 48 48 48 48 48 48 48 48 48 48 48 48 48 48 48 48 48 48 48 48 48 48 48 48 49 49 49 49 50 50 50 50 50 50
45 45 45 44 44 44 44 44 44 44 44 44 44 44 43 43 43 42 42 41 40 39 38 38 37 37 37 37 37 38 38 39 39 39 38 38 38 37 37 36 35 33 32 30 30 29 27 23 20 20 22 23 22 22 25 24 23 25 31 38 42 43 45 46 46 47 47 47 48 48 47 47 47 48 48 48 48 48 48 48 48 48 48 48 48 48 48 48 48 48 48 48 48 48 49 49 49 50 50 50 50 50 50
45 45 44 44 44 44 44 44 44 44 44 44 43 43 43 42 42 41 41 40 39 38 37 37 36 35 35 35 35 36 37 37 37 37 37 37 37 36 36 35 33 32 30 29 27 25 23 21 20 20 21 23 23 24 27 25 25 27 34 38 41 42 44 45 46 46 47 47 47 47 47 47 47 47 47 47 47 47 47 47 47 48 48 48 48 47 47 47 47 47 47 47 48 48 48 49 49 49 49 50 50 50 50
44 44 45 44 43 43 43 43 43 43 43 43 43 42 42 41 41 41 40 39 38 37 37 35 34 33 33 33 33 33 34 35 35 36 36 35 35 35 34 33 32 30 29 27 23 19 19 19 20 22 21 22 22 23 26 25 26 29 35 38 40 42 43 44 45 46 46 46 46 46 46 46 46 46 47 47 47 47 47 47 47 47 47 47 47 47 47 47 47 47 47 47 47 48 48 48 49 49 49 49 49 49 49
44 44 44 43 43 43 43 43 43 43 42 42 42 41 41 41 41 40 39 38 37 36 35 34 32 32 31 30 30 30 30 32 32 33 33 33 33 33 32 32 30 29 27 23 20 18 17 17 19 23 24 21 20 22 25 24 26 31 35 37 39 41 42 43 44 45 46 46 46 46 46 46 46 46 46 46 46 46 46 47 47 47 47 47 47 47 47 47 46 47 47 47 47 47 48 48 49 49 49 49 49 49 49
44 44 43 43 42 42 42 42 42 42 42 41 41 41 41 40 39 38 37 37 35 34 33 32 31 30 29 28 28 27 25 25 27 29 31 32 32 31 31 29 28 26 24 21 19 19 18 17 19 22 23 19 19 21 24 24 27 31 34 37 38 40 41 42 44 44 45 45 45 45 45 46 46 46 46 46 46 46 46 46 46 46 47 47 47 47 46 46 46 46 46 47 47 47 48 48 48 48 48 48 48 48 49
43 43 43 42 41 41 41 41 41 41 41 41 40 40 39 38 38 37 36 35 33 32 32 30 29 28 28 26 25 23 20 18 19 23 27 28 29 29 28 28 26 23 20 19 19 19 18 17 19 22 21 19 19 20 25 25 28 31 34 36 38 39 40 41 43 44 44 44 44 45 45 45 45 46 46 46 46 46 46 46 46 46 46 47 47 46 46 46 46 46 46 46 47 47 47 48 48 48 48 48 48 48 48
43 43 42 42 41 41 41 41 40 40 40 40 39 38 37 37 36 35 34 33 32 31 30 29 28 27 26 24 23 19 15 14 16 18 21 24 26 26 25 26 23 20 18 19 19 18 18 18 19 21 21 19 19 21 25 26 28 31 33 35 37 38 40 41 42 43 43 44 44 44 44 45 45 45 45 45 45 46 46 46 46 46 46 46 46 46 46 46 46 46 46 46 46 47 47 48 48 48 48 47 47 47 48
42 42 42 41 41 41 40 39 39 39 38 38 37 37 36 35 34 33 32 32 31 29 28 28 26 24 23 21 18 15 13 14 14 15 17 20 22 23 22 22 20 19 18 18 18 18 19 19 20 21 21 19 20 21 23 25 28 30 32 35 36 37 39 40 41 42 43 43 43 43 44 44 45 45 45 45 45 45 45 45 46 46 46 46 46 46 46 46 46 46 46 46 46 46 47 48 48 48 47 47 47 47 47
39 39 40 40 40 40 39 37 37 37 36 36 34 32 32 32 31 30 30 30 30 28 27 27 23 19 19 17 16 14 13 14 14 16 17 18 19 21 21 21 20 19 19 19 19 20 21 22 21 20 20 20 20 20 21 24 27 29 32 33 35 37 37 39 40 41 42 43 43 43 43 44 44 44 44 45 45 45 45 45 45 46 46 46 46 46 46 46 46 46 46 46 46 46 47 47 48 48 47 47 47 47 47
35 35 36 36 37 37 36 33 32 32 31 32 30 27 24 28 27 26 28 28 27 25 25 23 18 14 14 14 14 14 13 13 13 14 15 15 16 18 21 21 21 21 20 21 21 22 22 22 22 20 20 20 19 19 21 24 27 29 31 32 34 35 37 38 39 41 41 42 43 43 43 43 43 44 44 44 44 44 44 45 45 45 45 45 45 45 46 46 46 46 46 46 46 46 46 47 47 47 46 46 46 47 47
32 31 31 31 31 32 31 28 27 27 27 29 28 24 20 22 22 23 25 23 20 19 20 17 14 13 13 12 12 12 12 13 13 13 13 14 15 17 19 20 20 21 22 21 22 23 23 22 22 21 20 19 19 19 20 24 27 28 30 31 32 34 36 37 38 40 41 41 42 43 43 43 43 43 43 44 44 44 44 44 45 45 45 45 45 45 45 45 46 46 46 45 46 46 46 47 47 47 46 46 46 46 47
27 27 26 26 26 26 25 23 24 26 25 27 26 23 21 18 17 18 19 18 15 14 14 12 12 13 13 11 11 11 11 13 15 15 13 13 14 16 17 16 16 18 20 20 21 22 22 22 21 21 19 19 19 19 21 24 26 28 29 31 32 33 35 37 38 39 40 41 41 42 43 43 43 43 43 43 43 44 44 44 44 44 44 45 45 45 45 45 45 46 45 45 45 46 46 46 47 47 46 46 46 46 47
23 23 23 22 22 22 21 22 23 26 26 24 23 23 21 17 15 15 16 16 14 13 12 11 11 13 12 10 10 11 11 12 13 14 13 13 13 14 15 14 14 14 18 18 20 22 22 21 21 20 18 17 17 19 23 24 26 27 28 30 31 32 34 36 37 38 39 40 41 41 42 42 42 43 43 43 43 44 44 44 44 44 44 44 44 44 45 45 45 45 45 45 45 45 46 46 46 46 46 46 46 46 47
20 21 20 21 21 20 19 22 24 26 26 24 23 22 19 16 15 16 16 17 16 15 14 12 11 11 10 10 10 11 11 14 13 13 13 13 13 13 14 13 13 14 15 16 19 22 21 21 21 20 18 17 17 18 21 24 25 27 28 29 30 32 33 35 36 37 39 39 40 41 41 42 42 42 43 43 43 43 44 44 43 43 43 44 44 44 44 45 45 45 45 45 45 45 46 46 46 46 46 46 46 46 46
19 19 18 19 20 21 19 21 23 25 25 24 23 21 18 16 17 18 17 17 16 15 14 12 10 10 11 11 11 11 13 15 15 14 14 14 14 14 14 14 13 13 12 16 19 21 20 21 20 18 17 16 15 16 18 22 24 26 27 28 30 32 33 34 35 37 38 39 40 40 41 42 42 42 42 42 43 43 44 43 43 43 43 43 43 44 44 44 45 45 45 45 45 45 45 46 46 46 45 45 45 46 46
18 18 16 17 19 20 19 20 23 24 24 24 23 21 19 16 16 17 16 16 14 14 14 12 11 13 16 17 15 13 14 16 16 16 15 16 16 16 15 14 14 13 11 15 17 18 18 19 18 16 14 14 15 15 16 19 23 25 27 28 30 31 32 34 35 36 37 38 39 40 41 41 41 42 42 42 42 43 43 43 43 43 43 43 43 44 44 44 44 45 45 45 45 45 45 45 45 45 45 45 45 46 46
18 18 17 19 19 19 19 20 22 23 23 23 21 19 19 17 17 16 15 15 14 14 15 15 18 20 21 22 20 18 15 16 15 14 14 19 19 17 16 14 14 13 13 14 14 14 14 15 15 14 13 13 14 15 15 18 22 25 27 28 29 31 32 33 34 35 37 37 38 39 40 41 41 41 41 41 42 42 43 43 43 43 43 43 43 43 44 44 44 44 45 45 45 45 45 45 44 44 44 44 45 45 46
17 17 17 18 18 18 18 20 21 22 22 22 20 19 18 18 18 17 15 14 14 14 14 14 17 19 21 21 19 19 20 20 18 15 14 17 17 17 16 16 15 14 13 12 12 13 14 14 15 15 15 14 14 14 15 17 21 25 26 28 29 30 32 33 34 35 36 37 37 38 39 40 41 41 41 41 41 42 42 42 42 43 43 43 43 43 43 44 44 44 44 44 44 44 44 44 44 44 44 44 45 45 45
17 17 17 17 17 18 18 19 19 20 21 21 20 18 17 17 17 16 15 14 14 13 12 14 16 19 22 22 19 19 22 21 19 17 15 16 17 17 17 17 15 14 13 13 14 15 16 16 16 16 17 17 16 15 15 16 20 24 26 27 28 29 31 32 33 34 35 36 37 38 39 40 40 40 40 41 41 41 42 42 42 42 43 43 43 43 43 43 43 43 43 44 44 44 44 44 43 43 43 44 44 45 45
18 18 17 17 18 18 18 19 19 19 20 20 19 18 17 16 16 15 15 14 14 14 14 16 18 19 22 21 20 20 22 21 19 18 18 18 18 18 19 18 16 14 13 14 14 15 16 17 17 16 16 16 15 15 15 15 18 21 25 26 28 28 30 31 32 33 34 35 36 37 38 39 39 39 40 40 40 41 41 41 42 42 42 43 43 43 43 43 43 43 43 43 43 43 43 43 43 43 43 44 44 44 44
19 18 17 17 17 18 19 19 18 18 19 19 19 18 17 17 16 16 15 15 14 14 15 15 16 17 18 19 19 20 21 18 17 17 17 19 19 18 18 16 15 14 14 14 14 14 15 16 15 14 14 13 13 14 14 14 14 16 24 26 27 28 29 30 31 32 33 34 35 36 37 38 38 38 39 39 40 40 40 41 41 42 42 42 43 43 43 43 43 43 43 43 43 43 43 43 43 43 43 43 44 44 43
19 18 17 17 17 18 18 18 18 18 19 19 18 18 16 16 15 14 13 14 15 15 15 14 14 15 15 16 18 19 20 18 18 18 18 19 19 18 17 16 15 15 15 14 14 14 14 14 14 13 12 12 11 11 12 13 14 15 19 23 25 27 28 29 30 32 32 33 34 35 36 37 37 37 38 38 39 39 40 40 41 41 42 42 42 43 43 43 43 43 43 42 42 42 42 42 42 42 43 43 43 43 43
19 18 17 17 17 18 16 16 17 18 18 18 18 17 15 15 14 14 13 14 14 14 14 14 14 14 14 15 15 16 18 17 17 17 17 17 17 17 16 16 16 16 16 14 14 13 13 13 13 13 12 12 11 11 11 13 15 17 17 22 25 26 28 28 29 30 31 32 32 33 34 35 36 36 37 37 38 39 39 40 40 41 41 42 42 42 42 42 43 43 42 42 42 42 42 42 42 42 42 42 43 43 42
20 19 18 17 17 17 18 17 17 17 17 17 17 17 16 15 16 16 16 17 15 14 14 14 15 15 16 15 15 15 17 17 18 19 18 16 16 16 17 16 16 16 17 15 14 14 14 14 14 14 13 13 12 12 12 13 15 16 17 20 23 25 25 27 28 29 29 30 31 32 32 33 34 35 36 37 37 38 38 39 40 41 41 41 42 42 42 42 42 42 42 42 42 42 42 42 42 42 42 42 42 42 42
20 19 19 18 17 17 17 18 18 17 16 16 17 17 17 17 18 17 17 17 15 14 16 17 19 20 20 18 17 17 19 19 19 19 19 17 17 17 17 16 15 15 17 17 18 18 15 14 14 14 13 13 13 13 12 13 14 14 17 18 20 22 22 24 26 27 28 29 29 30 31 32 33 34 35 36 36 37 38 38 39 40 41 41 41 41 41 41 42 42 42 42 42 42 42 42 42 42 42 42 42 42 42
20 19 19 18 17 17 17 18 18 17 16 17 17 18 18 18 18 18 17 17 16 16 18 18 20 23 23 19 18 19 19 19 18 18 17 17 17 17 17 16 15 15 17 18 19 19 16 15 14 14 13 13 13 13 13 14 14 14 16 18 18 19 20 20 21 24 27 28 29 29 30 31 32 32 33 34 35 36 37 38 39 40 40 41 41 41 41 41 41 41 41 41 41 41 41 42 42 42 42 42 42 42 41
20 19 19 19 18 17 17 18 18 18 18 17 17 18 18 18 18 18 17 16 17 18 19 19 19 21 22 19 19 19 23 19 18 17 17 16 16 16 16 17 17 16 17 17 18 18 16 15 14 14 14 13 13 13 12 14 14 14 15 16 17 18 19 18 18 20 23 26 28 29 29 30 31 32 32 33 34 35 37 37 38 39 40 40 40 41 41 41 41 41 41 41 41 41 41 41 41 41 41 42 41 41 41
20 20 20 19 18 18 18 18 18 18 18 17 17 17 17 17 17 17 17 16 17 18 19 18 19 19 19 19 19 19 21 19 18 17 17 16 16 16 16 18 18 17 17 18 19 18 16 15 14 14 13 13 13 13 13 13 13 13 13 14 15 16 17 18 19 20 20 22 24 28 29 29 30 30 32 32 34 35 36 37 38 38 39 39 40 40 40 40 40 41 41 41 41 41 41 41 41 41 41 41 41 41 41
21 21 21 19 19 19 19 18 18 18 18 17 17 17 16 16 16 15 15 14 16 18 18 18 18 18 18 19 19 18 18 19 18 17 17 16 15 15 15 17 17 17 17 19 19 17 16 15 14 14 13 13 13 13 14 13 13 13 13 14 14 14 17 21 23 23 20 20 22 24 28 28 29 30 31 32 33 35 36 37 37 37 37 38 38 39 39 39 40 40 40 40 41 41 41 41 41 41 41 41 41 41 41
22 22 22 20 19 19 19 18 18 18 18 18 17 17 17 16 16 15 14 14 16 19 19 20 19 17 17 18 19 18 17 19 18 17 17 16 16 15 16 17 17 17 17 20 19 18 17 16 15 14 14 14 13 13 13 13 13 13 13 14 14 16 19 22 22 21 20 20 21 23 26 28 29 29 30 32 33 34 35 36 36 36 36 37 37 38 38 39 39 40 40 40 40 40 40 41 41 41 41 41 41 41 41
23 22 22 20 19 19 19 19 19 19 19 18 18 17 16 16 16 16 16 15 16 19 20 21 20 18 17 17 18 18 17 17 17 17 17 15 15 15 16 16 17 17 18 19 19 18 17 18 18 19 19 17 15 14 14 14 14 14 14 14 14 16 19 21 21 21 21 22 22 23 23 26 28 29 30 31 32 33 33 34 34 34 35 36 37 37 37 38 38 39 39 40 40 40 40 40 41 41 41 41 41 41 41
23 23 22 20 19 19 20 20 20 20 19 19 18 17 16 15 16 16 18 18 18 18 19 21 21 20 19 18 17 17 16 16 16 16 16 17 16 15 15 16 17 17 18 18 18 18 18 18 20 22 22 20 18 16 15 14 14 14 14 15 15 16 19 21 22 23 23 24 23 23 23 24 26 28 30 31 31 32 32 32 32 33 34 35 35 36 37 37 38 38 39 39 39 40 40 40 40 41 41 41 41 41 41
23 23 21 20 19 19 19 20 21 21 19 19 18 17 15 15 16 17 18 18 18 18 18 20 21 22 20 18 17 17 16 16 16 16 15 18 18 16 15 17 18 18 18 18 18 18 18 19 20 21 21 19 18 17 16 17 17 16 15 15 15 17 20 22 23 23 23 24 23 23 23 23 24 25 26 28 28 28 29 31 32 32 32 33 34 35 36 37 37 38 38 39 39 39 40 40 40 40 41 41 41 41 41
23 23 21 20 19 19 19 21 22 21 19 19 18 17 16 16 17 17 18 18 18 19 19 19 21 22 23 21 19 18 17 17 17 18 17 18 18 17 17 18 18 18 18 18 18 18 18 20 20 19 19 19 19 18 18 20 21 19 16 15 15 17 21 22 23 23 23 23 23 23 23 23 23 23 23 24 24 24 26 29 30 31 32 32 33 34 35 35 36 37 38 38 39 39 39 40 40 40 40 41 41 41 41
23 23 22 20 19 19 19 21 21 21 19 19 18 17 16 16 16 17 17 18 18 19 20 19 20 21 22 24 22 19 18 18 18 18 19 19 19 19 22 21 19 19 18 18 17 17 18 19 19 18 17 19 19 19 18 20 21 20 17 17 16 18 21 21 22 23 22 22 21 21 23 22 22 22 22 23 23 22 23 26 28 30 31 31 32 33 34 34 34 36 37 37 38 39 39 39 40 40 40 40 41 41 41
24 23 22 21 20 19 19 21 21 21 20 19 18 17 16 16 16 17 17 17 17 18 21 22 20 19 21 22 22 20 18 18 18 18 18 18 18 19 22 21 20 19 19 19 18 18 20 18 17 17 18 18 18 18 17 18 19 19 18 18 18 18 18 20 21 21 21 20 19 19 22 22 21 20 20 22 22 21 22 23 25 28 29 30 31 31 32 32 33 34 35 37 37 38 39 39 39 40 40 40 41 41 41
24 24 23 21 20 19 20 21 22 22 20 19 19 18 17 17 17 18 19 19 19 19 20 22 22 20 19 20 20 20 19 19 19 19 18 17 16 17 18 18 18 18 18 18 18 19 22 18 17 17 18 17 17 18 18 18 18 18 17 18 18 17 16 17 18 19 19 17 17 19 21 21 20 20 19 20 21 21 21 21 22 23 27 29 30 30 31 31 32 33 34 35 36 37 38 38 39 39 40 40 41 41 41
24 24 23 22 20 20 20 21 22 22 20 19 19 19 19 18 19 20 21 20 19 19 19 20 21 22 19 19 19 19 19 19 19 19 18 16 15 14 14 15 16 16 17 18 18 19 19 18 17 17 17 17 18 18 18 18 17 17 17 17 17 16 15 14 15 15 15 17 19 19 20 20 20 20 20 21 21 21 21 21 21 21 24 25 27 28 29 30 31 32 32 33 34 35 36 37 38 38 39 40 40 40 40
24 23 23 22 21 20 21 21 21 22 21 22 21 20 20 21 22 22 20 19 19 19 19 18 19 20 20 19 18 19 20 20 20 19 17 16 16 15 14 14 14 15 15 16 18 19 19 17 16 16 16 17 18 18 18 19 18 17 17 17 17 16 15 15 14 14 15 17 19 19 19 20 20 21 20 21 21 21 21 21 21 21 22 22 22 23 24 26 28 31 32 32 33 33 35 36 37 38 39 40 40 40 40
24 24 23 23 21 21 21 21 21 22 23 22 21 19 19 19 20 20 20 19 19 19 18 17 18 19 20 19 19 19 19 20 20 19 17 17 16 16 15 15 14 12 11 12 14 18 20 19 18 18 16 16 16 17 18 19 18 18 17 17 17 16 15 16 16 16 17 17 18 19 19 20 21 21 21 21 20 20 21 21 21 21 21 21 22 23 24 27 28 30 31 32 32 33 33 35 37 37 38 39 40 40 40
24 24 23 23 22 21 21 21 21 22 23 21 20 19 19 19 19 19 19 19 20 20 19 19 18 18 18 19 19 19 21 21 21 20 19 18 17 16 15 14 13 11 10 10 10 12 15 16 17 17 17 16 16 16 16 18 18 18 18 17 16 16 16 17 17 17 17 17 17 19 19 20 21 21 21 21 20 20 21 21 21 21 21 21 22 23 23 27 28 30 30 31 32 32 33 34 36 37 38 38 39 40 40
24 23 23 23 22 22 21 21 22 22 23 21 20 19 18 18 19 19 19 19 19 19 19 21 20 19 17 17 18 18 21 22 22 20 20 19 18 16 14 13 13 13 13 11 9 7 7 10 13 15 17 17 17 16 16 16 16 16 16 15 16 17 18 18 18 17 16 16 17 18 19 20 21 22 21 21 21 20 20 20 20 20 21 21 20 20 21 24 28 29 29 30 31 32 32 34 35 36 37 38 39 39 40
24 24 23 23 23 22 22 22 22 22 22 21 20 19 19 18 18 18 18 19 19 19 19 20 19 18 16 17 17 17 18 22 22 21 20 19 18 17 16 15 15 14 13 10 8 6 5 9 10 12 17 17 17 16 16 16 16 17 18 17 16 15 16 17 17 17 16 17 17 17 17 16 16 18 19 20 20 20 20 19 19 19 19 20 21 23 24 27 28 28 28 29 29 30 31 33 34 35 36 37 38 39 40
25 24 24 23 23 22 22 22 22 22 22 21 20 19 19 19 19 19 19 19 19 19 19 19 19 18 17 16 16 16 16 19 20 21 20 20 20 19 19 16 14 12 10 9 8 8 10 10 10 10 13 16 17 17 17 17 17 17 19 19 17 15 15 16 16 17 16 16 16 17 17 16 16 16 18 19 19 19 19 19 19 19 19 20 22 23 24 25 26 26 26 26 28 29 30 32 33 34 36 37 38 39 40
24 24 24 24 23 22 22 22 22 22 22 22 21 20 19 19 19 19 19 19 19 19 19 19 18 18 18 17 16 16 16 17 20 22 21 20 21 22 21 19 17 14 12 11 10 11 14 13 10 8 9 13 16 17 15 15 15 16 18 17 16 15 16 15 15 15 15 15 15 16 16 18 17 15 14 16 17 18 19 19 19 19 19 19 20 20 21 22 23 24 24 25 25 26 30 31 32 34 36 37 37 39 40
24 24 24 24 23 23 22 22 22 22 22 22 21 20 19 19 19 19 19 19 19 19 20 20 19 18 17 17 17 17 16 16 18 20 22 20 21 21 22 20 19 19 19 17 16 15 14 12 10 9 9 10 12 15 17 14 14 14 15 15 15 15 14 14 14 14 15 15 15 15 15 16 15 14 14 14 16 18 18 19 19 19 19 19 19 19 19 21 24 26 25 26 26 27 30 31 32 34 35 37 37 38 39
23 24 25 24 23 23 22 22 22 22 22 23 22 21 19 19 19 19 19 19 19 20 21 20 19 19 19 18 17 17 16 17 17 19 19 19 19 20 21 20 19 19 21 20 19 17 15 13 11 10 10 7 8 10 14 15 15 14 14 14 15 15 14 13 13 13 14 15 15 15 15 14 14 15 15 15 15 16 17 18 18 18 18 18 18 19 19 23 26 27 27 28 28 29 29 30 31 33 35 36 37 38 39
24 24 24 24 24 23 23 22 22 22 22 23 23 21 19 19 19 19 20 19 20 22 22 20 19 19 20 19 18 17 17 17 17 18 19 18 18 19 20 19 19 18 20 19 19 19 18 16 14 13 11 9 7 7 10 12 14 15 15 14 14 14 14 13 13 14 14 15 15 15 15 15 15 16 16 15 15 15 16 16 16 17 17 18 18 18 19 21 22 23 25 27 28 28 28 29 31 32 34 35 37 37 38
24 25 25 25 24 23 23 22 22 22 22 24 23 21 20 19 19 19 19 19 20 22 22 20 20 19 20 19 18 17 17 17 17 18 19 18 18 19 21 20 19 19 20 19 19 18 18 17 17 16 14 13 11 9 8 10 12 14 14 15 15 15 15 14 15 16 15 15 15 16 15 15 15 15 15 15 15 15 16 16 17 17 17 18 18 18 19 19 20 20 21 23 26 28 28 29 30 32 33 35 36 37 38